星链-4574 (STARLINK-4574 )

导读

STARLINK-4574是美国太空探索技术公司(SpaceX)星链(Starlink)卫星互联网项目的卫星,于2022年9月5日发射升空。星链旨在构建全球卫星互联网星座,为全球提供高速低延迟互联网服务,该卫星入轨后参与组网,服务覆盖偏远地区等网络薄弱区域,推进星链星座全球服务能力的搭建。

基本信息
目录编号:
53733
目录名称:
STARLINK-4574
国际标识:
2022-107AK
轨道中心:
EARTH
卫星名称:
星链-4574
卫星全名:
星链-4574 (STARLINK-4574 )
卫星状态:
在轨 (已飞行1381 天)
发射日期:
2022-09-05 UTC
国别 :
美国 (US)
星等 :
--
轨道信息
数据来源 国际轨道数据 AOE轨道数据
星历时间 2026-06-17T12:51:48+0800
5小时前
查看轨道信息
2026-06-15T06:00:00+0800
2天前
查看轨道信息
半长轴 6914.368km 6917.888km
偏心率 0.0001666 0.0001503
轨道倾角 53.160° 53.158°
近地点辐角 97.062° 44.443°
升交点赤经 167.510° 177.802°
平近点角 263.056° 124.102°
近地点 535.079km 538.711km
远地点 537.383km 540.791km
周期 95.365分钟 95.438分钟
每日圈数 15.099899 15.088378
详细信息
固有亮度:
5
最大亮度:
2.5
卫星平台:
Starlink v1.5
覆盖范围:
全球
运营商:
太空探索技术公司
运营商所在国:
美国
制造商(研发单位):
太空探索技术公司
制造商所在国:
美国
使用方式:
暂无
卫星简介
星链(Starlink)计划是由太空探索技术公司(SpaceX)提出的一个巨型低轨卫星互联网星座项目,计划在2019年至2024年间在太空搭建由约1.2万颗卫星组成的“星链”网络,其中1584颗将部署在地球上空550千米处的近地轨道,并从2020年开始工作。该卫星仍在工作。
2D轨道图
3D轨道图
轨道高度分析图
轨道倾角分析图
轨道综合分析图
查看轨道综合分析图